This is the latest recevied weather packets stored in our database for station/object VK2KGV-15. If no packets are shown the sender has not sent any weather packets the latest 10 day(s).
| Time | Temp. | Humidity | Pressure | Rain* | Wind** | Luminosity | Snow |
|---|---|---|---|---|---|---|---|
| 1777397772 | 10° C | 84% | 1024.4 hPa | 0 mm | - | - | - |
| 1777397169 | 10.56° C | 84% | 1024.3 hPa | 0 mm | - | - | - |
| 1777395963 | 10.56° C | 85% | 1024.4 hPa | 0 mm | - | - | - |
| 1777394757 | 10.56° C | 84% | 1024.4 hPa | 0 mm | - | - | - |
| 1777393551 | 10.56° C | 83% | 1024.6 hPa | 0 mm | - | - | - |
| 1777392344 | 11.67° C | 82% | 1024.5 hPa | 0 mm | - | - | - |
| 1777391741 | 11.67° C | 82% | 1024.4 hPa | 0 mm | - | - | - |
| 1777390535 | 12.22° C | 81% | 1024.6 hPa | 0 mm | - | - | - |
| 1777389933 | 12.22° C | 80% | 1024.6 hPa | 0 mm | - | - | - |
| 1777388726 | 13.33° C | 79% | 1024.6 hPa | 0 mm | - | - | - |
| 1777386313 | 13.33° C | 81% | 1024.7 hPa | 0 mm | - | - | - |
| 1777385107 | 13.33° C | 77% | 1024.8 hPa | 0 mm | - | - | - |
| 1777382694 | 14.44° C | 76% | 1024.5 hPa | 0 mm | - | - | - |
| 1777382091 | 14.44° C | 76% | 1024.7 hPa | 0 mm | - | - | - |
| 1777379076 | 15° C | 71% | 1024.8 hPa | 0 mm | - | - | - |
| 1777376663 | 15.56° C | 71% | 1024.5 hPa | 0 mm | - | - | - |
| 1777376060 | 15.56° C | 70% | 1024.4 hPa | 0 mm | - | - | - |
| 1777373648 | 16.11° C | 65% | 1024.1 hPa | 0 mm | - | - | - |
| 1777373045 | 16.67° C | 64% | 1023.9 hPa | 0 mm | - | - | - |
| 1777371839 | 16.67° C | 64% | 1023.9 hPa | 0 mm | - | - | - |
| 1777370632 | 15.56° C | 62% | 1023.9 hPa | 0 mm | - | - | - |
| 1777369426 | 15.56° C | 58% | 1023.8 hPa | 0 mm | - | - | - |
| 1777368220 | 16.67° C | 55% | 1023.6 hPa | 0 mm | - | - | - |
| 1777367013 | 17.22° C | 53% | 1023.2 hPa | 0 mm | - | - | - |
| 1777365807 | 18.33° C | 50% | 1023 hPa | 0 mm | - | - | - |
* Rain since midnight (hover to see other rain measurements)
** Current wind speed in m/s (hover to see current wind gust speed)